EW6956 Weather Reports


time (UTC)temp
C
wind
direction
speed
KPH
gust
KPH
rain 1hr
cm
rain 24hr
cm
rain mn
cm
humidity
%
barometer
mb
20260906154551 31 153 0.0 0.0 0.00 0.00 0.00 58 1012.3
20260906153108 30 153 0.0 0.0 0.00 0.00 0.00 58 1012.2
20260906151552 29 153 0.0 0.0 0.00 0.00 0.00 57 1012.2
20260906150036 28 135 0.0 0.0 0.00 0.00 0.00 52 1012.4
20260906144532 27 135 0.0 0.0 0.00 0.00 0.00 41 1012.4
20260906143035 26 135 0.0 0.0 0.00 0.00 0.00 40 1012.5
20260906141521 26 135 0.0 0.0 0.00 0.00 0.00 32 1012.9
20260906140023 26 135 0.0 0.0 0.00 0.00 0.00 28 1012.7
20260906134514 25 135 0.0 0.0 0.00 0.00 0.00 11 1012.6
20260906133021 23 135 0.0 0.0 0.00 0.00 0.00 1 1012.6
20260906131503 22 136 0.0 0.0 0.00 0.00 0.00 1 1012.6
20260906130100 22 136 0.0 0.0 0.00 0.00 0.00 1 1012.5
20260906124555 21 138 0.0 0.0 0.00 0.00 0.00 1 1012.4
20260906123057 21 138 0.0 0.0 0.00 0.00 0.00 1 1012.4
20260906121546 21 138 0.0 0.0 0.00 0.00 0.00 1 1012.1
20260906120041 20 142 0.0 0.0 0.00 0.00 0.00 1 1012.0
20260906114537 21 142 0.0 0.0 0.00 0.00 0.00 1 1011.9
20260906113034 21 142 0.0 0.0 0.00 0.00 0.00 1 1011.9
20260906111531 21 142 0.0 0.0 0.00 0.00 0.00 1 1011.7
20260906110024 21 142 0.0 0.0 0.00 0.00 0.00 1 1011.7
20260906104520 21 142 0.0 0.0 0.00 0.00 0.00 1 1011.6
20260906103015 21 142 0.0 0.0 0.00 0.00 0.00 1 1011.5
20260906101520 21 142 0.0 0.0 0.00 0.00 0.00 1 1011.3
20260906100007 21 142 0.0 0.0 0.00 0.00 0.00 1 1011.2
20260906094501 21 142 0.0 0.0 0.00 0.00 0.00 1 1011.2
20260906093100 21 142 0.0 0.0 0.00 0.00 0.00 1 1011.2
20260906091553 21 142 0.0 0.0 0.00 0.00 0.00 1 1011.1
20260906090100 21 142 0.0 0.0 0.00 0.00 0.00 1 1010.9
20260906084545 21 142 0.0 0.0 0.00 0.00 0.00 1 1010.9
20260906083040 21 142 0.0 0.0 0.00 0.00 0.00 1 1010.7
20260906081535 22 142 0.0 0.0 0.00 0.00 0.00 1 1010.7
20260906080031 22 142 0.0 0.0 0.00 0.00 0.00 1 1010.8
20260906074527 22 142 0.0 0.0 0.00 0.00 0.00 1 1010.8
20260906073022 22 142 0.0 0.0 0.00 0.00 0.00 1 1010.9
20260906071518 22 142 0.0 0.0 0.00 0.00 0.00 1 1011.0
20260906070014 22 142 0.0 0.0 0.00 0.00 0.00 1 1011.0
20260906064509 22 142 0.0 0.0 0.00 0.00 0.00 1 1011.1
20260906063005 22 142 0.0 0.0 0.00 0.00 0.00 1 1011.1
20260906061605 22 142 0.0 0.0 0.00 0.00 0.00 1 1011.1
20260906060056 23 142 0.0 0.0 0.00 0.00 0.00 1 1010.8
20260906054552 23 142 0.0 0.0 0.00 0.00 0.00 3 1010.9
20260906053049 23 142 0.0 0.0 0.00 0.00 0.00 4 1010.8
20260906051557 23 142 0.0 0.0 0.00 0.00 0.00 7 1010.6
20260906050053 23 142 0.0 0.0 0.00 0.00 0.00 17 1010.6
20260906044547 23 142 0.0 0.0 0.00 0.00 0.00 20 1010.4
20260906043041 24 142 0.0 0.0 0.00 0.00 0.00 26 1010.4
20260906041529 25 142 0.0 0.0 0.00 0.00 0.00 31 1010.4
20260906040033 25 142 0.0 0.0 0.00 0.00 0.00 35 1010.4
20260906034526 25 142 0.0 0.0 0.00 0.00 0.00 35 1010.4
20260906033016 25 142 0.0 0.0 0.00 0.00 0.00 35 1010.4
20260906031514 25 142 0.0 0.0 0.00 0.00 0.00 38 1010.4
20260906030007 25 326 0.0 0.0 0.00 0.00 0.00 43 1010.4
20260906024503 26 326 0.0 0.0 0.00 0.00 0.00 47 1010.2
20260906023059 26 326 0.0 0.0 0.00 0.00 0.00 50 1009.8
20260906021554 26 326 0.0 0.0 0.00 0.00 0.00 54 1009.6
20260906020058 27 326 0.0 0.0 0.00 0.00 0.00 56 1009.1
20260906014546 27 326 0.0 0.0 0.00 0.00 0.00 57 1009.0
20260906013058 27 326 0.0 0.0 0.00 0.00 0.00 59 1008.9
20260906011546 28 326 0.0 0.0 0.00 0.00 0.00 60 1008.8
20260906010035 29 326 0.0 0.0 0.00 0.00 0.00 60 1008.4
20260906004531 30 100 0.0 0.0 0.00 0.00 0.00 60 1008.3
20260906003026 31 100 0.0 0.0 0.00 0.00 0.00 58 1008.2
20260906001522 32 98 0.0 0.0 0.00 0.00 0.00 54 1008.3
20260906000016 33 112 0.0 1.6 0.00 0.00 0.00 54 1008.3
20260905234512 34 119 0.0 0.0 0.00 0.00 0.00 52 1008.5
20260905233009 35 119 0.0 0.0 0.00 0.00 0.00 45 1008.3
20260905231503 36 119 0.0 0.0 0.00 0.00 0.00 43 1008.4
20260905230104 36 119 0.0 0.0 0.00 0.00 0.00 40 1008.3
20260905224555 37 119 0.0 0.0 0.00 0.00 0.00 38 1008.2
20260905223052 37 119 0.0 0.0 0.00 0.00 0.00 37 1008.2
20260905221548 38 118 0.0 0.0 0.00 0.00 0.00 33 1008.2
20260905220041 38 125 0.0 0.0 0.00 0.00 0.00 37 1008.2
20260905214536 38 63 0.0 0.0 0.00 0.00 0.00 33 1008.3
20260905213032 38 228 0.0 0.0 0.00 0.00 0.00 33 1008.5
20260905211527 38 205 0.0 0.0 0.00 0.00 0.00 32 1008.7
20260905210037 38 284 0.0 0.0 0.00 0.00 0.00 32 1009.1
20260905204518 38 261 0.0 0.0 0.00 0.00 0.00 33 1009.3
20260905203013 38 200 0.0 0.0 0.00 0.00 0.00 35 1009.4
20260905201509 37 178 0.0 0.0 0.00 0.00 0.00 35 1009.7
20260905200005 37 205 0.0 0.0 0.00 0.00 0.00 36 1009.9
20260905194601 37 252 0.0 0.0 0.00 0.00 0.00 38 1010.1
20260905193056 37 250 0.0 0.0 0.00 0.00 0.00 39 1010.4
20260905191551 37 57 0.0 0.0 0.00 0.00 0.00 39 1010.6
20260905190047 37 101 0.0 0.0 0.00 0.00 0.00 40 1010.9
20260905184546 36 206 0.0 6.4 0.00 0.00 0.00 42 1011.1
20260905183039 36 207 0.0 0.0 0.00 0.00 0.00 42 1011.4
20260905181533 37 275 0.0 0.0 0.00 0.00 0.00 43 1011.6
20260905180029 36 19 0.0 0.0 0.00 0.00 0.00 43 1011.8
20260905174525 36 338 0.0 0.0 0.00 0.00 0.00 42 1011.9
20260905173020 36 162 0.0 0.0 0.00 0.00 0.00 45 1012.1
20260905171526 35 246 0.0 0.0 0.00 0.00 0.00 48 1012.3
20260905170012 35 160 0.0 0.0 0.00 0.00 0.00 47 1012.5
20260905164506 35 116 0.0 0.0 0.00 0.00 0.00 49 1012.7
20260905163002 34 281 0.0 0.0 0.00 0.00 0.00 51 1012.8
20260905161558 33 119 0.0 0.0 0.00 0.00 0.00 55 1012.8